Regional Weather Roundup
Issued by NWS

Home | Current Version | Previous Version | Text Only | Print | Product List | Glossary On
Versions: 1 2 3 4 5 6 7 8 9 10 11 12 13 14 15 16 17 18 19 20 21 22 23 24 25 26 27
000
ASUS46 KSEW 261110
RWRWA

WASHINGTON REGIONAL WEATHER ROUNDUP
NATIONAL WEATHER SERVICE SEATTLE WA
400 AM PDT FRI MAY 26 2017

NOTE:"FAIR" INDICATES FEW OR NO CLOUDS BELOW 12,000 FEET WITH NO
SIGNIFICANT WEATHER AND/OR OBSTRUCTIONS TO VISIBILITY.

WAZ507-509-555>559-261200-
SEATTLE, TACOMA, EVERETT, AND VICINITY

CITY           SKY/WX    TMP DP  RH WIND       PRES   REMARKS
EVERETT        CLEAR     54  46  74 N3        29.93R
BOEING FIELD   CLEAR     54  50  86 CALM      29.93R
RENTON         CLEAR     53  50  89 S3        29.92S
SEATAC AIRPORT CLEAR     55  48  77 CALM      29.93R
JBLM-MCCHORD   CLEAR     46  46  99 S3        29.93R
PUYALLUP         N/A     46  46 100 CALM      29.92S
BREMERTON      CLEAR     44  43  96 CALM      29.93R
JBLM-FT LEWIS  CLEAR     48  45  87 SE2       29.95S
TACOMA NARROWS CLEAR     51  47  86 CALM      29.94R
$$

WAZ001-503-506-510-514-515-261200-
NORTH INTERIOR

CITY           SKY/WX    TMP DP  RH WIND       PRES   REMARKS
BELLINGHAM     CLEAR     48  47  96 CALM      29.92R
FRIDAY HARBOR  CLEAR     46  45  96 CALM      29.93R
EASTSOUND      CLEAR     50  46  87 CALM      29.92S
PORT ANGELES   CLEAR     46  44  93 SE3       29.93R
EDIZ HOOK      NOT AVBL
PORT TOWNSEND  NOT AVBL
NAS WHIDBEY    CLEAR     49  43  80 E5        29.96R
ARLINGTON      CLEAR     46  37  71 CALM      29.95S
BURLINGTON     CLEAR     48  46  93 CALM      29.93R
$$

WAZ020-022-039-040-504-511-512-261200-
SOUTHWEST INTERIOR

CITY           SKY/WX    TMP DP  RH WIND       PRES   REMARKS
SHELTON        CLEAR     45  44  97 NW3       29.91R
OLYMPIA        CLEAR     47  46  97 SE3       29.93R
CHEHALIS       FAIR      46  46 100 CALM      29.93R
KELSO          CLEAR     50  48  93 CALM      29.92S
VANCOUVER      CLEAR     51  49  92 CALM      29.89S
SCAPPOOSE, OR  CLEAR     49  48  97 CALM      29.89R
PORTLAND, OR   CLEAR     54  49  83 CALM      29.90R
$$

WAZ021-516-517-261200-
WASHINGTON COAST

CITY           SKY/WX    TMP DP  RH WIND       PRES   REMARKS
FORKS          CLEAR     42  40  92 CALM      29.94R
HOQUIAM        CLEAR     46  46 100 NE6       29.93S FOG
ASTORIA, OR    CLEAR     46  43  89 CALM      29.91S
$$

WAZ019-023-024-040-567>569-261200-
CASCADE MOUNTAINS AND COLUMBIA GORGE

CITY           SKY/WX    TMP DP  RH WIND       PRES   REMARKS
STAMPEDE PASS  CLEAR     46  43  89 SW3       29.96R
TROUTDALE, OR  CLEAR     52  48  86 CALM      29.89S
THE DALLES, OR CLEAR     49  44  83 E6        29.91R
$$

WAZ026-027-041>044-520-521-261200-
EAST SLOPES

CITY           SKY/WX    TMP DP  RH WIND       PRES   REMARKS
OMAK           CLEAR     45  41  86 N6        29.92R
WENATCHEE      CLEAR     51  45  79 W7        29.91R
ELLENSBURG     CLEAR     46  40  79 CALM      29.92R
YAKIMA         CLEAR     47  42  83 W7        29.92R
SUNNYSIDE ARPT NOT AVBL
$$

WAZ028-034-035-261200-
COLUMBIA BASIN

CITY           SKY/WX    TMP DP  RH WIND       PRES   REMARKS
EPHRATA        CLEAR     53  41  63 W8        29.89R
MOSES LAKE     CLEAR     46  41  82 CALM      29.90R
PASCO          CLEAR     45  43  93 N5        29.90R
HERMISTON, OR  CLEAR     42  40  92 CALM      29.90R
$$

WAZ036>038-261200-
NORTHEAST WASHINGTON

CITY           SKY/WX    TMP DP  RH WIND       PRES   REMARKS
SPOKANE GEIGER PTCLDY    47  40  76 CALM      29.89S
SPOKANE FELTS  CLEAR     43  41  93 CALM      29.90R
FAIRCHILD AFB  CLEAR     46  41  82 CALM      29.89R
COEURDALENE,ID CLEAR     46  41  82 E6        29.91R
DEER PARK      CLEAR     38  36  92 N7        29.91R
$$

WAZ029>033-261200-
SOUTHEAST WASHINGTON

CITY           SKY/WX    TMP DP  RH WIND       PRES   REMARKS
PULLMAN        PTCLDY    41  37  86 CALM      29.90R
LEWISTON, ID   CLOUDY    50  43  77 W3        29.88R
WALLA WALLA    CLEAR     51  44  77 SE5       29.90R
PENDLETON, OR  CLEAR     43  41  93 SE7       29.90R
$$




USA.gov is the U.S. government's official web portal to all federal, state and local government web resources and services.